Time,TemperatureF,DewpointF,PressureIn,WindDirection,WindDirectionDegrees,WindSpeedMPH,WindSpeedGustMPH,Humidity,HourlyPrecipIn,Conditions,Clouds,dailyrainin,SoftwareType,DateUTC
2013-03-04 00:01:00,53.0,41.0,29.88,WNW,290,2.0,8.0,63,0.00,,,-99.99,,2013-03-04 08:01:00,
2013-03-04 00:31:00,52.0,40.0,29.89,West,280,3.0,4.0,63,0.00,,,-99.99,,2013-03-04 08:31:00,
2013-03-04 01:01:00,53.0,40.0,29.89,North,-999,0.0,0.0,61,0.00,,,-99.99,,2013-03-04 09:01:00,
2013-03-04 01:31:00,52.0,40.0,29.91,North,-999,0.0,0.0,63,0.00,,,-99.99,,2013-03-04 09:31:00,
2013-03-04 03:01:00,52.0,39.0,29.91,North,-999,0.0,0.0,62,0.00,,,-99.99,,2013-03-04 11:01:00,
2013-03-04 03:31:00,52.0,41.0,29.91,West,280,3.0,4.0,66,0.00,,,-99.99,,2013-03-04 11:31:00,
2013-03-04 04:11:00,51.0,40.0,29.92,West,270,1.0,4.0,66,0.00,,,-99.99,,2013-03-04 12:11:00,
2013-03-04 04:22:00,51.0,40.0,29.92,West,270,1.0,4.0,66,0.00,,,-99.99,,2013-03-04 12:22:00,
2013-03-04 04:32:00,51.0,40.0,29.92,West,280,2.0,7.0,67,0.00,,,-99.99,,2013-03-04 12:32:00,
2013-03-04 05:02:00,51.0,40.0,29.93,North,0,0.0,3.0,67,0.00,,,-99.99,,2013-03-04 13:02:00,
2013-03-04 06:01:00,50.0,39.0,29.95,WNW,300,1.0,3.0,67,0.00,,,-99.99,,2013-03-04 14:01:00,
2013-03-04 06:31:00,50.0,39.0,29.96,North,0,0.0,3.0,67,0.00,,,-99.99,,2013-03-04 14:31:00,
2013-03-04 07:01:00,50.0,39.0,29.98,WNW,300,1.0,3.0,67,0.00,,,-99.99,,2013-03-04 15:01:00,
2013-03-04 07:31:00,49.0,39.0,30.00,NW,310,2.0,3.0,69,0.00,,,-99.99,,2013-03-04 15:31:00,
2013-03-04 07:52:00,49.0,39.0,30.00,NW,310,2.0,3.0,69,0.00,,,-99.99,,2013-03-04 15:52:00,
2013-03-04 08:02:00,49.0,39.0,30.00,NW,310,2.0,3.0,69,0.00,,,-99.99,,2013-03-04 16:02:00,
2013-03-04 14:22:00,61.0,47.0,30.01,North,0,0.0,2.0,60,0.00,,,-99.99,,2013-03-04 22:22:00,
2013-03-04 14:32:00,60.0,47.0,30.00,North,0,0.0,2.0,63,0.00,,,-99.99,,2013-03-04 22:32:00,
2013-03-04 14:43:00,60.0,47.0,30.00,North,0,0.0,2.0,63,0.00,,,-99.99,,2013-03-04 22:43:00,
2013-03-04 14:52:00,60.0,47.0,30.00,North,0,0.0,2.0,63,0.00,,,-99.99,,2013-03-04 22:52:00,
2013-03-04 15:01:00,61.0,47.0,30.00,SW,230,1.0,2.0,59,0.00,,,-99.99,,2013-03-04 23:01:00,
2013-03-04 15:11:00,61.0,47.0,30.00,SW,230,1.0,2.0,59,0.00,,,-99.99,,2013-03-04 23:11:00,
2013-03-04 15:21:00,61.0,47.0,30.00,SW,230,1.0,2.0,59,0.00,,,-99.99,,2013-03-04 23:21:00,
2013-03-04 15:32:00,62.0,48.0,30.00,North,0,0.0,1.0,60,0.00,,,-99.99,,2013-03-04 23:32:00,
2013-03-04 15:42:00,62.0,48.0,30.00,North,0,0.0,1.0,60,0.00,,,-99.99,,2013-03-04 23:42:00,
2013-03-04 15:52:00,62.0,48.0,30.00,North,0,0.0,1.0,60,0.00,,,-99.99,,2013-03-04 23:52:00,
2013-03-04 21:01:00,53.0,45.0,30.06,North,-999,0.0,0.0,75,0.00,,,-99.99,,2013-03-05 05:01:00,
2013-03-04 21:11:00,53.0,45.0,30.06,NW,320,2.0,3.0,75,0.00,,,-99.99,,2013-03-05 05:11:00,
2013-03-04 21:22:00,53.0,45.0,30.06,NW,320,2.0,3.0,75,0.00,,,-99.99,,2013-03-05 05:22:00,
2013-03-04 21:31:00,54.0,46.0,30.05,NW,320,1.0,3.0,74,0.00,,,-99.99,,2013-03-05 05:31:00,
2013-03-04 22:01:00,55.0,46.0,30.07,North,-999,0.0,0.0,71,0.00,,,-99.99,,2013-03-05 06:01:00,
2013-03-04 22:31:00,54.0,45.0,30.06,North,-999,0.0,0.0,71,0.00,,,-99.99,,2013-03-05 06:31:00,
2013-03-04 23:01:00,54.0,45.0,30.06,North,-999,0.0,0.0,72,0.00,,,-99.99,,2013-03-05 07:01:00,
2013-03-04 23:31:00,54.0,43.0,30.06,North,0,0.0,1.0,65,0.00,,,-99.99,,2013-03-05 07:31:00,